Location: Casteau
(50.5142°N, 4.0161°E)
Time: 00:14:31
(UTC+00:00)

S-56A Canister/Altair - Pass Details

Date: 02 August 2021
Orbit: 632 x 2500 km, 38.9° (Epoch: 19 September)

Event Time Altitude Azimuth Distance (km) Brightness Sun altitude
Rises 14:31:46 0° 231° (SW) 5,429 12.6 44.0°
Reaches altitude 10° 14:35:14 10° 225° (SW) 4,636 12.5 43.6°
Maximum altitude 14:47:42 45° 159° (SSE) 3,096 11.1 41.8°
Drops below altitude 10° 15:01:25 10° 95° (E) 5,085 11.4 39.8°
Sets 15:05:26 0° 90° (E) 5,984 11.6 39.2°
